Date,TemperatureHighF,TemperatureAvgF,TemperatureLowF,DewpointHighF,DewpointAvgF,DewpointLowF,HumidityHigh,HumidityAvg,HumidityLow,PressureMaxIn,PressureMinIn,WindSpeedMaxMPH,WindSpeedAvgMPH,GustSpeedMaxMPH,PrecipitationSumIn
2013-3-3,38.9,35.5,32.2,31.1,27.7,24.7,79,73,61,29.69,29.62,15,9,0,0.00
2013-3-4,43.9,35.6,31.0,30.0,26.6,23.7,81,70,54,29.74,29.65,19,12,0,0.00
2013-3-5,49.6,38.7,33.2,33.3,28.6,25.2,78,67,50,30.01,29.75,20,10,0,0.00
2013-3-6,43.4,39.5,35.0,37.6,34.3,30.7,84,82,69,30.03,29.82,30,11,0,0.00
2013-3-7,42.6,37.9,34.7,35.2,32.6,30.1,84,81,70,29.98,29.81,25,17,0,0.19
2013-3-8,40.1,37.6,34.1,33.9,31.5,28.6,84,79,71,30.09,29.96,14,10,21,0.83
2013-3-9,53.8,41.7,32.4,36.5,30.8,26.9,89,66,40,30.33,30.04,17,9,24,0.00
2013-3-10,41.7,37.0,31.9,35.7,32.1,27.5,84,82,77,30.39,30.31,12,6,13,0.00
2013-3-11,48.7,43.0,33.8,43.5,37.7,28.9,83,82,79,30.33,30.13,12,6,15,0.00
2013-3-12,50.8,49.1,45.1,45.1,42.6,37.6,81,78,74,30.13,29.72,27,16,33,0.27
2013-3-13,52.4,44.8,38.7,39.1,33.9,28.8,81,67,44,29.84,29.76,13,9,20,0.01
2013-3-14,41.3,35.3,31.5,32.0,21.9,16.3,77,59,46,29.90,29.81,18,12,29,0.00
2013-3-15,43.9,36.9,31.0,34.0,23.5,15.3,74,58,47,29.94,29.71,17,10,25,0.00
2013-3-16,40.9,36.5,33.7,30.8,27.0,20.4,82,69,45,29.89,29.75,13,5,22,0.02
2013-3-17,39.0,35.1,30.8,30.5,21.4,14.4,82,59,39,30.29,29.88,14,8,18,0.00
2013-3-18,36.8,32.7,27.1,30.4,20.8,12.5,82,62,46,30.42,30.06,18,9,26,0.15
2013-3-19,43.2,39.5,35.9,36.7,33.6,30.1,83,79,77,30.06,29.58,20,12,28,0.81
2013-3-20,44.4,37.5,31.5,32.8,26.8,22.5,83,66,49,29.85,29.75,16,8,28,0.00
2013-3-21,38.9,35.7,30.6,31.6,28.3,26.3,84,74,63,29.82,29.61,12,6,18,0.00
2013-3-22,43.4,36.1,30.1,27.2,23.0,19.2,84,59,43,29.83,29.67,15,10,22,0.00
2013-3-23,47.0,39.6,32.2,28.4,25.6,23.6,76,58,43,29.87,29.73,20,12,32,0.00
2013-3-24,47.1,40.0,32.2,33.5,27.4,22.7,79,61,47,29.91,29.70,14,8,18,0.00
2013-3-25,42.6,38.8,35.0,34.5,31.8,29.9,84,76,61,29.74,29.42,19,9,24,0.11
2013-3-26,52.1,42.5,36.1,36.1,33.0,29.9,84,70,45,29.82,29.51,12,6,15,0.12
2013-3-27,54.2,44.6,36.0,33.6,30.3,27.3,78,59,37,29.90,29.80,15,8,20,0.00
2013-3-28,50.7,44.2,38.9,39.0,35.5,32.3,80,71,63,30.05,29.89,12,7,17,0.00
2013-3-29,56.1,46.4,40.6,40.4,36.6,34.5,80,69,44,30.09,30.02,12,7,18,0.00
2013-3-30,58.0,46.4,39.7,39.7,35.2,27.6,80,67,32,30.13,30.05,14,7,19,0.00
2013-3-31,49.8,43.6,33.8,43.9,38.4,29.5,85,82,77,30.14,29.63,19,6,24,0.11
2013-4-1,51.0,46.1,40.2,45.1,39.5,25.8,82,78,56,29.84,29.61,15,9,28,0.21
2013-4-2,44.1,38.7,32.7,24.6,20.0,15.3,64,48,32,30.05,29.84,18,11,24,0.00
2013-4-3,46.5,39.6,34.0,22.7,19.4,17.1,56,44,32,30.24,30.03,17,13,28,0.00
2013-4-4,43.7,38.9,31.2,36.3,27.5,19.3,81,64,45,30.37,30.12,18,11,24,0.00
2013-4-5,59.8,46.0,41.7,43.6,36.9,28.7,83,72,35,30.12,29.67,17,7,23,0.03
2013-4-6,49.3,41.5,37.5,34.4,24.8,13.1,77,53,24,30.33,29.92,16,10,23,0.00
2013-4-7,49.3,45.1,37.1,43.5,39.3,32.1,83,80,66,30.32,30.04,20,10,24,0.00
2013-4-8,62.3,51.1,46.2,49.2,44.5,40.4,82,78,57,30.08,29.98,11,6,11,0.00
2013-4-9,79.1,57.0,47.9,54.6,45.7,41.3,82,69,33,30.05,29.89,15,7,18,0.00
2013-4-10,66.8,52.8,48.5,54.3,46.3,42.7,83,79,64,29.99,29.80,17,7,21,0.12
2013-4-11,59.6,50.2,45.7,52.0,43.4,39.6,80,77,74,30.07,29.78,17,8,22,0.19
2013-4-12,45.9,43.3,41.1,40.0,36.8,35.1,81,78,75,30.07,29.69,26,13,33,0.78
2013-4-13,53.2,45.6,40.5,43.7,39.4,35.2,86,79,65,29.97,29.68,12,8,19,0.05
2013-4-14,57.1,50.5,45.5,45.4,38.3,30.8,81,65,40,30.21,29.96,16,8,25,0.00
2013-4-15,49.0,45.3,39.7,41.4,36.6,30.6,82,72,56,30.39,30.21,11,5,14,0.00
2013-4-16,53.8,49.5,44.0,47.7,43.3,37.6,81,79,78,30.39,30.14,21,11,25,0.00
2013-4-17,69.1,56.2,47.6,48.5,44.0,38.8,81,66,34,30.30,30.10,10,6,13,0.01
2013-4-18,54.6,50.0,43.2,45.9,42.1,38.1,82,75,55,30.38,30.13,16,9,22,0.00
2013-4-19,58.0,54.6,50.8,47.5,44.9,42.4,76,70,66,30.13,29.70,25,15,29,0.01
2013-4-20,58.0,52.6,46.5,46.6,41.3,35.0,79,66,45,30.22,29.66,21,9,28,0.38
2013-4-21,55.2,44.8,38.3,36.3,30.1,23.8,76,57,36,30.64,30.22,16,10,27,0.00
2013-4-22,50.2,44.5,38.1,40.3,36.3,32.3,80,73,55,30.66,30.50,19,11,30,0.00
2013-4-23,50.8,45.7,42.1,44.2,39.1,35.4,80,78,74,30.50,30.01,15,10,28,0.00
2013-4-24,56.4,48.7,45.1,47.2,41.3,37.5,79,76,68,30.03,29.90,18,12,23,0.00
2013-4-25,64.9,53.4,47.6,47.0,41.1,34.6,78,64,33,30.27,29.89,13,8,18,0.00
2013-4-26,58.9,51.0,40.0,49.8,43.5,34.3,80,76,67,30.39,30.27,8,4,10,0.00
2013-4-27,60.3,49.7,42.8,48.2,41.8,34.0,79,74,57,30.41,30.32,9,6,13,0.00
2013-4-28,56.4,50.0,41.1,48.8,40.6,32.1,76,70,58,30.34,30.24,11,6,13,0.00
2013-4-29,55.5,53.6,51.5,46.9,45.7,44.2,76,74,70,30.27,30.22,13,8,16,0.00
2013-4-30,59.4,53.2,44.1,46.7,40.5,32.7,77,64,40,30.34,30.22,13,6,15,0.00
2013-5-1,59.8,48.8,41.5,49.6,41.1,35.2,78,75,67,30.45,30.33,12,5,13,0.00
2013-5-10,74.4,60.1,51.1,62.3,48.2,36.8,76,65,55,29.98,29.92,11,4,0,0.00
2013-5-11,60.2,58.3,56.1,49.1,42.9,38.2,69,57,51,29.93,29.70,21,9,0,0.30
2013-5-13,58.0,53.4,49.0,42.1,35.3,31.5,64,51,39,30.05,29.96,22,9,0,0.00
2013-5-14,52.3,52.0,51.6,38.7,38.1,37.3,60,59,58,30.08,30.07,10,8,0,0.00
2013-5-15,58.5,56.6,54.9,48.6,44.5,38.1,73,64,53,30.04,29.70,22,11,27,0.00
2013-5-16,65.4,59.3,53.3,55.2,45.0,34.9,71,60,47,29.81,29.68,12,6,21,0.00
2013-5-17,72.6,61.5,53.0,53.3,47.4,38.6,73,60,40,30.20,29.80,11,6,16,0.00
2013-5-18,64.0,58.8,54.5,54.8,48.8,40.7,74,70,59,30.32,30.20,11,6,14,0.00
2013-5-19,58.5,56.8,55.4,50.0,42.4,35.7,74,59,46,30.36,30.18,14,7,17,0.24
2013-5-20,63.0,59.0,56.0,41.7,36.2,33.0,48,42,37,30.18,29.97,13,6,16,0.00
2013-5-21,63.7,60.7,57.6,41.4,32.9,26.2,44,35,27,29.97,29.87,12,6,17,0.00
2013-5-22,67.2,59.8,54.3,50.4,22.7,12.5,57,25,15,29.96,29.88,12,6,15,0.00
2013-5-23,66.3,62.1,60.1,25.1,1.8,-40.1,21,10,1,29.95,29.81,19,12,22,0.15
2013-5-24,65.0,59.0,51.0,47.4,-23.1,-99.9,65,15,1,29.85,29.68,18,9,25,0.15
2013-5-25,51.1,49.2,48.4,42.0,23.2,-1.8,75,42,12,29.89,29.77,22,13,38,0.19
2013-5-26,64.6,55.4,47.0,46.5,43.6,38.8,75,65,49,30.17,29.86,18,11,26,0.00
2013-5-27,63.6,56.9,48.3,50.8,46.0,31.0,76,67,48,30.21,30.13,12,7,21,0.00
2013-5-28,66.6,57.5,50.2,57.2,25.4,-23.2,73,39,3,30.23,30.16,14,5,19,0.16
2013-5-29,64.7,59.7,56.7,43.1,9.5,-16.7,49,17,5,30.16,30.02,17,8,20,0.05
2013-5-30,70.7,65.1,58.9,58.7,37.3,-11.2,67,42,5,30.12,30.05,13,6,17,0.00
2013-5-31,73.4,67.4,61.5,62.9,40.8,-19.2,72,46,3,30.11,30.00,11,5,15,0.00
2013-6-1,69.7,65.6,61.1,56.3,34.0,4.5,64,35,9,30.03,29.94,12,8,17,0.00
2013-6-2,68.7,65.1,61.9,50.4,6.1,-99.9,52,22,1,29.96,29.82,19,10,29,0.00
2013-6-3,64.2,62.2,60.0,7.9,-83.6,-99.9,11,1,1,29.86,29.79,12,6,15,0.26
2013-6-4,75.4,64.6,57.6,56.5,37.0,-99.9,71,50,2,30.07,29.82,15,9,21,0.00
2013-6-5,71.2,62.1,55.5,55.1,41.6,-10.8,72,52,6,30.20,30.07,12,5,13,0.00
2013-6-6,68.2,62.4,55.9,57.3,-0.8,-99.9,72,33,1,30.17,30.03,12,6,16,0.00
2013-6-7,67.7,60.7,58.6,39.5,-64.6,-99.9,45,7,1,30.03,29.64,22,11,26,2.73
2013-6-8,71.6,64.6,55.7,60.7,-42.2,-99.9,69,16,2,30.02,29.49,26,10,27,0.38
2013-6-9,74.8,68.2,60.7,63.3,18.3,-99.9,72,44,1,30.17,30.02,10,4,14,0.00
2013-6-10,69.5,64.4,59.8,41.7,-38.0,-99.9,41,9,1,30.17,29.88,15,7,21,2.73
2013-6-11,71.9,67.1,63.3,44.8,-58.0,-99.9,44,7,3,29.88,29.59,14,8,21,0.15
2013-6-12,75.7,69.7,63.4,59.6,56.8,44.4,73,64,51,29.83,29.63,16,10,22,0.00
2013-6-13,63.6,61.3,57.1,51.8,22.3,-12.8,66,30,5,29.81,29.46,16,10,25,0.50
2013-6-14,72.7,62.9,55.8,59.2,21.1,-99.9,72,51,1,29.82,29.47,13,8,22,0.51
2013-6-15,81.8,68.8,62.2,60.8,49.7,17.3,72,52,16,29.96,29.82,12,7,17,0.00
2013-6-16,71.9,68.0,58.5,57.3,34.1,-99.9,62,38,3,29.96,29.77,12,6,16,0.00
2013-6-17,76.8,69.6,63.2,66.4,6.8,-99.9,71,31,2,29.91,29.82,10,4,13,0.00
2013-6-18,74.0,67.7,62.1,60.2,-16.8,-99.9,62,18,1,29.90,29.82,11,6,13,0.20
2013-6-19,79.2,67.6,61.1,61.9,25.6,-99.9,73,46,2,30.15,29.83,10,6,17,0.00
2013-6-20,71.3,65.2,57.1,61.5,52.1,29.9,74,63,35,30.27,30.15,13,5,15,0.00
2013-6-21,69.9,67.3,64.3,61.5,54.9,41.4,75,65,43,30.30,30.25,12,8,18,0.00
2013-6-22,72.4,69.3,65.2,63.4,21.8,-99.9,74,45,1,30.26,30.15,12,8,15,0.00
2013-6-23,73.9,70.1,65.6,56.2,-35.4,-99.9,55,16,2,30.19,30.08,14,8,22,0.00
2013-6-24,80.2,73.6,68.3,67.7,-23.7,-99.9,70,18,6,30.08,29.93,12,6,17,0.00
2013-6-25,78.1,73.6,68.8,61.4,19.7,-99.9,59,29,1,29.97,29.78,12,5,19,0.00
2013-6-26,85.2,75.4,71.5,73.2,22.5,-99.9,72,39,2,29.83,29.74,14,5,22,0.00
2013-6-27,79.4,71.8,67.9,61.8,-65.3,-99.9,55,7,1,29.82,29.64,16,5,18,0.28
2013-6-28,76.3,71.4,69.5,10.0,-98.0,-99.9,8,0,4,29.64,29.51,18,10,21,0.01
2013-6-29,77.3,72.1,69.5,48.3,-67.6,-99.9,36,5,1,29.72,29.49,13,8,16,0.00
2013-6-30,74.1,71.1,69.6,49.3,-80.2,-99.9,43,4,2,29.94,29.72,16,8,18,0.01
2013-7-1,76.6,72.0,69.7,17.8,-94.1,-99.9,11,0,1,30.08,29.93,14,9,16,0.00
2013-7-2,77.6,72.6,70.2,32.1,-90.4,-99.9,19,1,2,30.20,30.08,14,8,16,0.00
2013-7-3,74.5,72.1,69.9,-99.9,-99.9,-99.9,0,0,100,30.25,30.18,11,7,15,0.00
2013-7-4,79.3,74.5,71.1,37.9,-69.1,-99.9,23,3,2,30.25,30.17,14,8,20,0.00
2013-7-5,79.5,75.9,73.0,52.5,-30.8,-99.9,40,10,2,30.21,30.10,13,8,20,0.00
2013-7-6,83.7,77.7,73.1,68.1,-6.6,-99.9,61,21,1,30.12,30.01,11,7,16,0.00
2013-7-7,79.7,77.6,72.3,58.8,10.1,-99.9,49,21,1,30.04,29.93,12,6,18,0.00
2013-7-8,82.0,76.3,72.0,73.7,50.0,-6.8,76,46,4,30.03,29.93,12,7,18,0.00
2013-7-9,80.3,75.6,71.3,71.4,19.1,-99.9,75,32,4,30.07,30.00,10,6,14,0.00
2013-7-10,79.9,75.2,72.0,57.6,-45.7,-99.9,48,10,1,30.02,29.82,12,8,19,0.01
2013-7-11,76.4,73.6,70.6,15.4,-89.3,-99.9,10,1,1,29.90,29.80,9,5,16,0.05
2013-7-12,78.8,73.1,69.4,70.2,23.3,-99.9,75,37,2,30.12,29.89,12,6,19,0.00
2013-7-13,78.2,72.7,67.6,37.2,-95.6,-99.9,24,1,4,30.28,30.12,11,6,14,0.06
2013-7-14,85.9,77.7,71.4,74.5,-11.1,-99.9,69,23,1,30.31,30.22,11,6,16,0.02
2013-7-15,95.2,83.3,75.7,78.5,37.9,-99.9,73,45,1,30.22,30.10,9,4,12,0.00
2013-7-16,96.4,85.0,77.7,75.8,66.0,31.0,74,55,19,30.15,30.09,8,4,11,0.00
2013-7-17,87.7,79.7,74.6,77.1,18.1,-99.9,73,41,1,30.17,30.05,10,5,13,0.00
2013-7-18,94.2,82.5,76.2,78.7,7.4,-99.9,73,37,2,30.05,29.95,9,5,12,0.00
2013-7-19,84.1,80.1,75.8,65.2,-10.9,-99.9,55,20,5,29.95,29.79,13,8,21,0.00
2013-7-20,83.2,79.0,73.7,71.8,13.2,-99.9,75,34,1,29.82,29.70,15,8,21,0.00
2013-7-21,85.8,77.7,73.3,70.2,55.0,10.9,76,51,10,29.95,29.82,12,4,15,0.00
2013-7-22,80.5,75.0,72.4,66.2,-55.2,-99.9,63,10,1,29.95,29.82,11,5,17,0.00
2013-7-23,81.1,76.6,71.7,64.0,-48.6,-99.9,58,11,2,29.82,29.56,14,7,18,0.14
2013-7-24,88.4,78.3,70.6,76.3,3.9,-99.9,73,41,18,29.88,29.58,9,4,17,0.01
2013-7-25,73.4,66.5,62.3,63.4,11.4,-99.9,77,51,1,30.03,29.88,9,6,16,0.19
2013-7-26,73.9,67.3,61.8,64.5,-28.9,-99.9,74,23,1,30.05,29.92,13,7,18,0.18
2013-7-27,77.6,72.4,68.5,65.6,-24.3,-99.9,68,23,1,30.07,29.95,11,6,12,0.00
2013-7-28,77.5,73.7,69.5,67.6,-14.7,-99.9,72,28,6,30.00,29.92,10,4,12,0.00
2013-7-29,81.1,75.0,70.6,71.4,-10.4,-99.9,76,34,2,30.06,29.93,12,6,16,0.00
2013-7-30,83.4,75.1,67.7,64.6,61.8,59.9,78,64,48,30.13,30.05,11,6,15,0.00
2013-7-31,81.5,73.2,66.2,67.1,62.7,48.6,78,70,51,30.14,30.04,10,5,14,0.00
2013-8-1,76.5,72.0,67.5,68.7,50.2,-99.9,78,54,2,30.04,29.84,16,6,20,0.05
2013-8-2,83.2,74.2,68.9,69.7,3.8,-99.9,76,39,1,29.90,29.77,12,7,18,0.21
2013-8-3,75.4,73.0,70.3,66.5,59.0,41.9,77,63,32,29.90,29.83,12,6,15,0.01
2013-8-4,84.2,74.2,66.6,64.9,60.0,42.1,78,62,35,29.91,29.81,12,6,16,0.00
2013-8-5,78.9,70.6,64.9,61.0,56.2,50.4,79,62,41,30.04,29.91,13,7,19,0.00
2013-8-6,75.0,69.0,60.4,66.0,58.9,30.8,80,71,28,30.14,30.03,13,5,14,0.00
2013-8-7,72.9,68.4,61.1,65.6,51.3,-99.9,78,62,4,30.17,30.10,15,7,17,0.00
2013-8-8,77.7,73.8,70.3,66.4,22.4,-99.9,71,36,1,30.10,30.03,16,10,21,0.03
2013-8-9,76.2,73.6,72.6,3.1,-96.9,-99.9,6,0,1,30.04,29.80,21,12,25,0.05
2013-8-10,84.8,76.7,71.0,70.2,16.5,-99.9,76,47,2,30.02,29.81,11,6,19,0.00
2013-8-11,78.0,71.5,65.5,64.7,60.3,54.0,78,68,56,30.09,30.01,8,5,10,0.00
2013-8-12,78.5,72.7,67.4,69.5,9.6,-99.9,76,37,1,30.04,29.92,6,3,9,0.67
2013-8-13,74.1,70.1,66.6,52.9,-80.1,-99.9,49,4,1,29.93,29.67,14,3,19,0.63
2013-8-14,76.8,70.4,64.7,59.2,32.0,-99.9,76,52,4,30.00,29.69,12,8,21,0.00
2013-8-15,78.1,69.3,62.9,60.9,57.4,50.5,77,67,39,30.13,30.00,13,7,19,0.00
2013-8-16,77.3,71.2,65.0,65.5,61.5,52.6,78,72,56,30.19,30.11,10,5,13,0.00
2013-8-17,83.5,70.7,60.8,65.5,43.1,-99.9,77,52,2,30.26,30.19,8,3,11,0.00
2013-8-18,75.1,67.8,62.5,65.1,43.4,10.6,76,48,11,30.26,30.11,9,3,11,0.03
2013-8-19,80.0,70.2,62.2,68.3,51.9,-6.0,76,58,6,30.11,30.00,9,5,15,0.00
2013-8-20,86.5,74.0,65.3,70.8,43.9,-99.9,76,51,1,30.11,30.01,9,4,13,0.00
2013-8-21,82.9,74.3,65.9,73.0,-23.1,-99.9,74,29,3,30.15,30.05,9,4,13,0.00
2013-8-22,77.8,73.0,70.1,32.8,-82.2,-99.9,20,1,1,30.05,29.85,10,6,15,0.45
2013-8-23,84.1,73.9,66.4,67.5,15.7,-99.9,74,43,4,30.08,29.83,10,5,17,0.00
2013-8-24,78.7,67.7,59.6,62.0,48.7,-99.9,75,58,2,30.34,30.09,11,4,15,0.00
2013-8-25,79.5,67.7,56.7,66.1,31.9,-99.9,75,49,1,30.37,30.22,12,5,18,0.00
2013-8-26,73.8,71.5,69.7,65.1,38.0,-99.9,76,54,4,30.22,29.91,15,8,24,0.19
2013-8-27,85.3,73.1,69.2,74.4,-43.6,-99.9,73,19,2,29.91,29.79,11,4,17,0.39
2013-8-28,81.6,72.6,67.2,71.3,-49.4,-99.9,73,14,2,29.89,29.84,10,4,10,0.00
2013-8-29,78.5,70.3,66.0,68.7,-15.0,-99.9,73,30,6,30.03,29.88,9,5,12,0.00
2013-8-30,75.0,69.3,63.9,53.7,15.7,-99.9,54,33,3,30.02,29.86,15,5,19,0.00
2013-8-31,76.9,72.9,70.3,41.1,-72.7,-99.9,28,3,1,29.87,29.81,13,8,21,0.00
2013-9-1,76.8,72.8,71.2,-18.1,-97.1,-99.9,2,0,2,29.86,29.82,12,7,12,0.00
2013-9-2,75.1,72.8,71.3,-99.9,-99.9,-99.9,0,0,100,29.83,29.71,9,6,9,0.00
2013-9-3,74.0,71.1,68.2,61.9,-72.9,-99.9,72,10,28,29.84,29.70,7,4,7,2.02
2013-9-4,79.6,74.6,65.1,67.2,62.9,36.8,73,67,35,29.95,29.84,12,7,18,0.00
2013-9-5,77.8,71.3,63.7,65.8,55.0,50.0,71,57,49,30.11,29.95,12,7,15,0.00
2013-9-6,72.0,63.5,55.6,53.7,50.3,45.2,76,63,44,30.23,30.11,7,4,17,0.00
2013-9-7,70.8,65.4,54.8,60.6,54.6,40.5,76,68,52,30.12,29.89,15,7,25,0.00
2013-9-8,81.2,71.5,61.2,67.1,45.7,-99.9,75,57,39,30.06,29.78,11,7,20,0.00
2013-9-9,67.5,62.2,51.5,59.1,51.0,44.9,79,67,53,30.24,30.06,9,5,12,0.00
2013-9-10,73.7,70.1,67.0,61.2,19.0,-99.9,77,42,2,30.18,30.05,16,8,24,0.06
2013-9-11,77.2,73.0,69.5,52.2,-44.8,-99.9,42,10,1,30.11,30.00,12,7,17,0.00
2013-9-12,76.7,72.0,69.5,39.3,-83.9,-99.9,27,2,1,30.00,29.68,14,7,16,0.68
2013-9-13,80.3,71.0,63.6,69.2,-8.2,-99.9,74,38,17,29.77,29.60,13,5,21,0.02
2013-9-14,70.6,63.4,58.3,57.3,53.2,47.5,75,69,59,30.08,29.77,11,7,15,0.00
2013-9-15,69.2,62.4,55.3,56.9,52.2,43.8,76,70,57,30.18,30.08,10,5,13,0.00
2013-9-16,71.2,65.3,58.1,59.3,41.9,-99.9,75,56,2,30.19,30.03,13,4,18,0.00
2013-9-17,64.8,55.4,48.2,48.7,43.7,40.5,78,66,47,30.41,30.19,14,6,22,0.00
2013-9-18,67.9,57.5,45.8,54.4,43.6,7.2,75,61,17,30.34,30.18,10,4,15,0.00
2013-9-19,70.8,63.6,53.1,59.1,51.6,33.0,75,66,32,30.18,30.07,12,6,17,0.00
2013-9-20,71.2,65.0,54.2,61.6,4.8,-99.9,73,36,1,30.09,30.01,11,5,14,0.00
2013-9-21,73.6,67.4,57.4,54.9,-15.9,-99.9,52,20,2,30.02,29.71,19,9,24,0.00
2013-9-22,73.6,66.9,57.8,63.1,-17.3,-99.9,72,34,29,29.86,29.64,20,10,26,0.76
2013-9-23,65.6,58.7,52.9,50.4,47.5,45.1,75,67,55,30.00,29.85,13,9,21,0.00
2013-9-24,70.1,59.4,50.7,52.7,48.0,43.4,76,66,51,30.02,29.83,14,7,19,0.00
2013-9-25,72.2,60.3,49.5,57.7,44.6,10.4,77,59,18,29.93,29.87,10,4,12,0.00
2013-9-26,68.2,61.2,52.5,55.5,44.0,1.9,75,57,10,30.10,29.93,7,3,11,0.00
2013-9-27,66.9,61.8,51.6,55.8,46.5,11.8,74,60,20,30.25,30.09,8,4,11,0.00
2013-9-28,72.7,61.3,52.4,59.7,8.6,-99.9,73,38,2,30.30,30.23,9,3,13,0.00
2013-9-29,68.4,59.0,52.1,55.8,27.3,-99.9,73,42,1,30.23,30.08,11,4,13,0.00
2013-9-30,72.5,63.2,58.3,60.1,10.2,-99.9,72,37,1,30.08,29.97,7,4,11,0.00
2013-10-1,77.3,65.8,58.4,63.4,22.6,-99.9,72,44,1,29.97,29.87,11,5,13,0.00
2013-10-2,81.1,68.7,58.5,66.8,14.4,-99.9,72,38,3,29.98,29.87,11,4,12,0.00
2013-10-3,78.2,68.2,59.1,61.3,43.5,-99.9,74,54,2,30.09,29.97,8,4,12,0.00
2013-10-4,73.3,67.5,61.1,55.0,-9.4,-99.9,69,23,1,30.06,29.98,9,4,13,0.00
2013-10-5,72.4,65.2,62.4,61.7,-48.0,-99.9,69,17,5,30.09,30.01,7,3,9,0.00
2013-10-6,66.4,63.2,60.9,-99.9,-99.9,-99.9,0,0,100,30.14,30.06,12,6,17,0.26
2013-10-7,73.3,68.9,65.2,55.2,-67.5,-99.9,70,6,1,30.06,29.84,23,13,28,0.03
2013-10-8,67.5,61.8,56.5,55.8,49.5,46.7,73,65,49,30.31,29.92,15,8,21,0.00
2013-10-9,63.8,58.1,54.6,52.7,47.9,39.2,73,69,55,30.39,30.29,13,6,20,0.00
2013-10-10,65.7,60.7,55.6,51.4,40.5,27.6,66,48,28,30.29,30.08,12,7,20,0.00
2013-10-11,68.4,64.2,61.0,57.4,34.9,-2.9,72,42,7,30.08,30.01,13,8,22,0.00
2013-10-12,70.0,62.1,57.9,58.4,50.2,41.2,73,65,47,30.29,30.07,18,9,23,0.00
2013-10-13,62.3,57.4,51.7,52.6,44.6,30.0,73,63,38,30.38,30.27,15,7,20,0.00
2013-10-14,63.5,54.4,47.9,53.4,38.3,-2.1,73,57,13,30.37,30.25,9,3,13,0.00
2013-10-15,67.0,56.7,47.2,55.5,-1.2,-99.9,72,35,2,30.26,30.14,10,4,13,0.00
2013-10-16,67.1,61.6,56.7,55.2,11.6,-99.9,67,35,1,30.14,29.91,8,3,12,0.00
2013-10-17,67.4,62.7,58.4,24.4,-82.0,-99.9,20,2,1,29.91,29.73,11,6,17,0.00
2013-10-18,68.4,63.6,55.9,54.4,15.4,-99.9,71,49,20,29.95,29.66,17,9,22,0.00
2013-10-19,65.4,57.2,46.1,52.5,36.3,-45.5,73,52,1,29.99,29.75,9,3,11,0.01
2013-10-20,63.6,57.6,50.0,47.2,25.0,-99.9,72,50,1,30.05,29.72,12,7,20,0.01
2013-10-21,64.9,57.9,49.0,50.9,46.1,40.4,74,65,49,30.14,30.00,12,6,18,0.00
2013-10-22,65.9,61.0,54.4,55.9,51.2,45.7,74,70,58,30.00,29.72,12,8,18,0.00
2013-10-23,54.1,49.5,46.4,45.3,37.7,19.5,75,64,34,29.80,29.59,7,3,13,0.04
2013-10-24,55.6,49.6,45.0,41.2,35.9,31.8,75,60,41,29.95,29.70,14,8,20,0.00
2013-10-25,52.4,47.1,40.5,39.7,35.2,31.9,76,64,52,30.21,29.96,13,7,20,0.00
2013-10-26,56.3,50.1,41.3,46.0,39.2,34.3,76,66,54,30.20,29.91,23,11,33,0.00
2013-10-27,58.8,52.5,47.5,40.6,38.0,34.8,71,58,45,30.10,29.84,14,8,20,0.00
2013-10-28,58.5,51.1,43.5,46.0,40.1,34.9,76,66,54,30.30,30.09,13,6,22,0.00
2013-10-29,55.3,46.9,37.8,39.4,35.9,30.3,78,66,48,30.40,30.30,8,3,11,0.00
2013-10-30,59.2,51.3,37.7,50.0,36.5,8.0,76,59,20,30.36,30.19,8,2,10,0.00
2013-10-31,64.8,59.7,51.1,39.2,-29.1,-99.9,39,13,1,30.23,29.84,19,9,24,0.00
2013-11-1,67.1,63.5,60.5,33.9,-31.5,-99.9,34,9,1,29.84,29.56,23,13,33,0.01
2013-11-2,66.5,59.3,54.6,55.3,12.9,-99.9,72,48,2,29.74,29.61,7,4,11,0.00
2013-11-3,57.1,48.8,38.5,48.0,38.0,24.8,74,66,54,30.40,29.74,14,8,19,0.00
2013-11-4,48.1,40.1,34.0,33.2,27.7,24.1,76,62,45,30.66,30.40,12,6,20,0.00
2013-11-5,52.7,45.4,39.4,41.0,36.1,30.7,75,70,63,30.67,30.51,9,4,11,0.00
2013-11-6,59.9,52.9,40.4,50.6,17.6,-99.9,72,42,1,30.52,30.08,10,4,14,0.00
2013-11-7,60.7,56.4,46.3,40.9,-66.9,-99.9,74,16,8,30.08,29.70,17,9,24,0.23
2013-11-8,51.1,46.0,41.1,37.3,34.1,30.6,75,64,50,30.17,29.88,16,10,25,0.00
2013-11-9,52.4,46.1,38.6,43.3,34.0,29.7,74,63,49,30.26,30.03,14,7,21,0.00
2013-11-10,61.8,52.2,47.8,46.7,41.0,34.1,74,66,40,30.03,29.76,18,11,31,0.00
2013-11-11,53.8,50.1,45.7,45.1,37.6,33.0,73,62,53,30.16,29.96,19,11,27,0.00
2013-11-12,52.7,39.9,33.2,43.1,27.8,4.9,76,62,29,30.23,29.91,17,12,25,0.08
2013-11-13,39.1,34.3,30.6,24.7,22.0,19.0,70,61,48,30.32,30.21,15,10,24,0.00
2013-11-14,49.2,43.2,33.5,34.5,27.7,22.1,66,55,40,30.26,30.13,15,9,22,0.00
2013-11-15,53.3,49.1,45.1,45.3,35.1,16.9,76,60,29,30.23,30.17,14,6,18,0.00
2013-11-16,55.4,49.3,43.6,47.2,27.8,-99.9,75,57,1,30.32,30.22,9,4,11,0.00
2013-11-17,60.3,55.7,46.3,15.0,-90.7,-99.9,17,1,1,30.29,29.84,13,7,16,0.00
2013-11-18,62.2,57.6,52.4,52.4,-13.6,-99.9,72,37,8,29.84,29.60,22,10,33,0.14
2013-11-19,52.3,45.2,36.2,37.5,31.2,25.6,67,58,50,30.31,29.72,17,13,26,0.00
2013-11-20,44.1,35.9,30.8,25.6,23.7,21.5,76,62,42,30.61,30.31,13,6,22,0.00
2013-11-21,50.6,41.6,30.7,40.8,33.1,24.1,77,72,61,30.61,30.39,9,4,11,0.00
2013-11-22,54.4,51.5,48.5,40.2,-43.6,-99.9,66,20,2,30.39,29.87,10,4,14,0.04
2013-11-23,52.4,43.9,34.3,41.6,24.9,-99.9,77,58,49,29.95,29.85,19,11,31,0.04
2013-11-24,34.3,28.5,26.2,19.6,12.1,5.7,62,50,38,30.30,29.88,23,17,35,0.00
2013-11-25,37.4,30.3,24.8,26.9,18.4,12.7,70,61,46,30.45,30.30,14,7,19,0.00
2013-11-26,53.8,42.3,36.8,34.4,3.3,-99.9,74,47,1,30.33,29.90,14,6,20,0.15
2013-11-27,59.5,50.1,39.1,32.7,-78.3,-99.9,73,11,9,29.88,29.22,32,16,38,0.73
2013-11-28,38.6,33.6,29.4,31.0,22.2,16.9,75,63,51,30.47,29.64,20,11,30,0.00
2013-11-29,40.1,34.2,30.3,26.6,22.2,18.1,73,61,55,30.72,30.46,9,4,18,0.00
2013-11-30,43.3,33.1,25.3,35.0,23.4,17.2,76,67,53,30.76,30.39,12,5,15,0.00
2013-12-1,51.9,46.7,37.7,39.1,-28.8,-99.9,74,29,1,30.39,30.00,14,7,18,0.11
2013-12-2,49.5,41.4,37.8,39.9,-60.9,-99.9,72,13,1,30.00,29.88,6,2,7,0.00
2013-12-3,49.5,42.6,37.7,40.8,-19.1,-99.9,73,39,5,29.99,29.86,9,5,13,0.00
2013-12-4,51.6,42.6,33.9,41.0,13.8,-49.3,73,40,1,30.15,29.98,7,1,8,0.00
2013-12-5,57.6,53.8,47.2,12.4,-91.8,-99.9,19,1,1,30.15,29.95,13,6,16,0.00
2013-12-6,55.7,48.1,39.9,14.4,-86.5,-99.9,30,2,1,30.10,29.89,13,7,17,0.33
2013-12-7,42.3,38.5,33.9,34.7,-6.8,-99.9,78,47,3,30.48,30.04,13,8,19,0.30
2013-12-8,34.8,33.2,30.7,26.0,24.0,6.5,75,69,31,30.59,30.39,11,5,16,0.01
2013-12-9,51.0,41.7,34.1,2.7,-91.1,-99.9,26,1,1,30.39,29.88,16,8,25,0.29
2013-12-10,40.4,35.5,30.4,29.0,-26.5,-99.9,76,24,1,30.08,29.81,13,6,21,0.11
2013-12-11,36.5,31.4,27.8,23.6,21.1,18.9,76,66,54,30.30,30.09,15,9,21,0.00
2013-12-12,30.4,26.9,23.0,21.1,15.4,10.3,71,62,50,30.31,30.14,12,7,17,0.00
2013-12-13,36.9,29.8,22.6,23.5,16.0,9.9,73,56,48,30.34,30.09,16,9,25,0.00
2013-12-14,43.8,29.4,23.2,23.1,-8.3,-99.9,77,50,1,30.53,29.90,21,10,32,0.30
2013-12-15,52.8,39.4,32.6,30.6,-42.6,-99.9,75,31,4,29.90,29.40,21,10,28,1.07
2013-12-16,34.4,30.0,23.6,27.0,18.3,13.1,74,62,50,30.22,29.81,16,8,24,0.00
2013-12-17,45.9,30.4,23.5,20.8,-13.8,-99.9,76,37,1,30.24,29.86,13,6,18,0.20
2013-12-18,36.7,31.5,25.5,27.7,20.5,6.2,76,64,42,30.16,29.86,12,8,18,0.00
2013-12-19,46.4,39.1,29.7,37.7,30.7,22.7,76,72,62,30.17,30.01,14,7,25,0.00
2013-12-20,49.2,44.3,36.3,40.2,3.5,-99.9,74,39,1,30.12,29.98,12,5,17,0.00
2013-12-21,51.9,48.4,44.1,19.6,-75.8,-99.9,29,4,1,30.02,29.92,13,6,19,0.00
2013-12-22,59.8,51.9,48.7,25.9,-91.4,-99.9,28,1,8,30.00,29.86,19,10,25,0.00
2013-12-23,54.1,49.5,41.6,-33.7,-99.5,-99.9,3,0,3,30.10,29.88,11,5,16,0.51
2013-12-24,42.0,36.8,31.1,31.7,24.9,-17.9,75,64,7,30.26,30.04,15,10,26,0.02
2013-12-25,33.2,26.4,23.0,25.8,14.8,11.4,74,61,53,30.54,30.26,15,7,22,0.00
2013-12-26,44.2,36.7,31.6,35.6,28.3,23.6,75,71,57,30.44,30.12,14,6,18,0.00
2013-12-27,40.7,34.9,30.4,28.6,25.0,21.4,76,67,50,30.33,30.24,13,7,19,0.00
2013-12-28,48.6,41.5,33.0,39.5,30.7,11.9,75,66,28,30.28,30.06,16,7,26,0.00
2013-12-29,53.5,45.0,40.7,33.7,-35.3,-99.9,68,20,1,30.07,29.34,21,8,26,1.22
2013-12-30,45.6,37.4,23.1,37.3,-4.5,-99.9,74,43,1,30.16,29.62,13,9,23,0.00
2013-12-31,31.4,26.2,20.7,23.3,16.6,12.1,75,67,55,30.24,30.06,14,6,21,0.00
2014-1-1,32.9,28.9,24.0,23.7,18.0,13.6,76,64,56,30.41,30.24,11,5,15,0.00
2014-1-2,34.5,31.2,19.1,25.5,-2.1,-57.2,76,34,1,30.28,29.64,15,10,26,0.09